This demonstration page uses our WeatherBlox Daily Observations layout. Learn more.

Left ArrowRight Arrow

Hourly Observations for November 10, 2020

Temp ( °F °C ) Dew Point ( °F °C ) Humidity (%) Winds ( mph kmh ) Pressure ( in mb ) Visibility ( mi km ) Precip ( " mm )
12:51 am 00:51 Clear 33 0.6 26 -3.3 75 75 Calm 30.07 1018 10 16 0.00 0.00
1:51 am 01:51 Clear 32 0 26 -3.3 79 79 Calm 30.08 1019 10 16 0.00 0.00
2:51 am 02:51 Clear 32 0 26 -3.3 79 79 Calm 30.07 1018 10 16 0.00 0.00
3:51 am 03:51 Clear 29 -1.7 25 -3.9 85 85 Calm 30.08 1019 10 16 0.00 0.00
4:51 am 04:51 Clear 29 -1.7 25 -3.9 85 85 Calm 30.09 1019 10 16 0.00 0.00
5:51 am 05:51 Clear 28 -2.2 24 -4.4 85 85 SE 3 6 30.11 1020 10 16 0.00 0.00
6:51 am 06:51 Sunny 30 -1.1 26 -3.3 85 85 E 5 7 30.10 1019 10 16 0.00 0.00
7:51 am 07:51 Sunny 33 0.6 27 -2.8 78 78 SSE 3 6 30.12 1020 10 16 0.00 0.00
8:51 am 08:51 Sunny 39 3.9 29 -1.7 67 67 S 5 7 30.13 1020 10 16 0.00 0.00
9:51 am 09:51 Sunny 46 7.8 27 -2.8 47 47 Calm 30.11 1020 10 16 0.00 0.00
10:51 am 10:51 Sunny 51 10.6 24 -4.4 35 35 VRB 3 6 30.08 1019 10 16 0.00 0.00
11:51 am 11:51 Sunny 52 11.1 22 -5.6 31 31 VRB 3 6 30.06 1018 10 16 0.00 0.00
12:51 pm 12:51 Sunny 56 13.3 21 -6.1 26 26 VRB 5 7 30.02 1017 10 16 0.00 0.00
1:51 pm 13:51 Sunny 57 13.9 22 -5.6 26 26 W 8 13 29.98 1015 10 16 0.00 0.00
3:51 pm 15:51 Sunny 59 15 18 -7.8 20 20 WNW 9 15 29.95 1014 10 16 0.00 0.00
4:51 pm 16:51 Sunny 57 13.9 7 -13.9 13 13 W 10 17 29.95 1014 10 16 0.00 0.00
5:51 pm 17:51 Clear 52 11.1 6 -14.4 15 15 WNW 9 15 29.96 1015 10 16 0.00 0.00
6:51 pm 18:51 Clear 48 8.9 2 -16.7 15 15 Calm 29.99 1016 10 16 0.00 0.00
7:51 pm 19:51 Clear 46 7.8 2 -16.7 16 16 N 3 6 29.99 1016 10 16 0.00 0.00
8:51 pm 20:51 Clear 41 5 3 -16.1 20 20 Calm 30.01 1016 10 16 0.00 0.00
9:51 pm 21:51 Clear 38 3.3 6 -14.4 26 26 E 6 9 30.00 1016 10 16 0.00 0.00
10:51 pm 22:51 Clear 36 2.2 7 -13.9 30 30 S 3 6 30.00 1016 10 16 0.00 0.00
11:51 pm 23:51 Clear 35 1.7 8 -13.3 32 32 SSE 3 6 30.00 1016 10 16 0.00 0.00

Powered by AerisWeather